• In Germany
  • List of Countries
  • For 7 days
  • Water Temperature
  • Satellite Maps
  • Weather Map
  • Weather Widgets
  • user-avatar
    Login

    Hourly Weather Gomel

    Today, 17 January, Wednesday

    Time Temperature Precipitation Wind Pressure Humidity
    00:00 -12°C° 0 mm 6 mps 746 mmHg 73%
    01:00 -12°C° 0 mm 6 mps 745 mmHg 76%
    02:00 -12°C° 0 mm 6 mps 744 mmHg 83%
    03:00 -11°C° 0.1 mm 6 mps 743 mmHg 84%
    04:00 -11°C° 0.1 mm 7 mps 742 mmHg 85%
    05:00 -11°C° 0.1 mm 7 mps 741 mmHg 86%
    06:00 -9°C° 0.1 mm 7 mps 741 mmHg 86%
    07:00 -8°C° 0.1 mm 7 mps 740 mmHg 87%
    08:00 -8°C° 0 mm 6 mps 740 mmHg 86%
    09:00 -8°C° 0.3 mm 7 mps 739 mmHg 87%
    10:00 -7°C° 0.3 mm 7 mps 739 mmHg 87%
    11:00 -6°C° 0.3 mm 7 mps 738 mmHg 87%
    12:00 -6°C° 0.4 mm 7 mps 738 mmHg 88%
    13:00 -6°C° 0.4 mm 7 mps 737 mmHg 88%
    14:00 -4°C° 0 mm 6 mps 737 mmHg 89%
    15:00 -5°C° 0.2 mm 5 mps 737 mmHg 89%
    16:00 -5°C° 0.2 mm 5 mps 737 mmHg 90%
    17:00 -5°C° 0.2 mm 5 mps 737 mmHg 90%
    18:00 -4°C° 0 mm 4 mps 737 mmHg 91%
    19:00 -5°C° 0 mm 4 mps 737 mmHg 91%
    20:00 -5°C° 0 mm 4 mps 737 mmHg 92%
    21:00 -6°C° 0 mm 3 mps 737 mmHg 93%
    22:00 -6°C° 0 mm 3 mps 737 mmHg 93%
    23:00 -7°C° 0 mm 3 mps 737 mmHg 94%

    Tomorrow, 18 January, Thursday

    Time Temperature Precipitation Wind Pressure Humidity
    00:00 -7°C° 0 mm 3 mps 737 mmHg 94%
    01:00 -6°C° 0 mm 2 mps 738 mmHg 94%
    02:00 -6°C° 0 mm 2 mps 738 mmHg 94%
    03:00 -6°C° 0 mm 2 mps 738 mmHg 94%
    04:00 -4°C° 0 mm 1 mps 738 mmHg 94%
    05:00 -4°C° 0 mm 1 mps 738 mmHg 93%
    06:00 -4°C° 0 mm 1 mps 738 mmHg 93%
    07:00 -4°C° 0 mm 1 mps 738 mmHg 93%
    08:00 -4°C° 0 mm 1 mps 738 mmHg 93%
    09:00 -3°C° 0 mm 1 mps 739 mmHg 92%
    10:00 -2°C° 0 mm 1 mps 739 mmHg 91%
    11:00 -2°C° 0 mm 1 mps 740 mmHg 90%
    12:00 -2°C° 0 mm 1 mps 740 mmHg 90%
    13:00 -3°C° 0 mm 2 mps 740 mmHg 90%
    14:00 -3°C° 0 mm 2 mps 740 mmHg 90%
    15:00 -4°C° 0.1 mm 2 mps 741 mmHg 91%
    16:00 -4°C° 0.1 mm 2 mps 741 mmHg 92%
    17:00 -4°C° 0.1 mm 2 mps 741 mmHg 93%
    18:00 -4°C° 0.2 mm 2 mps 741 mmHg 94%
    19:00 -2°C° 0.2 mm 1 mps 741 mmHg 95%
    20:00 -2°C° 0.2 mm 1 mps 741 mmHg 95%
    21:00 -2°C° 0.3 mm 1 mps 741 mmHg 96%
    22:00 -2°C° 0.3 mm 1 mps 741 mmHg 96%
    23:00 -2°C° 0.3 mm 1 mps 741 mmHg 97%

    Day after tomorrow, 19 January, Friday

    Time Temperature Precipitation Wind Pressure Humidity
    00:00 -4°C° 0.7 mm 2 mps 741 mmHg 97%
    01:00 -3°C° 0.7 mm 2 mps 741 mmHg 97%
    02:00 -4°C° 0.7 mm 3 mps 740 mmHg 97%
    03:00 -4°C° 0.6 mm 3 mps 740 mmHg 96%
    04:00 -4°C° 0.6 mm 4 mps 739 mmHg 96%
    05:00 -3°C° 0.6 mm 4 mps 739 mmHg 95%
    06:00 -3°C° 0.4 mm 4 mps 738 mmHg 95%
    07:00 -3°C° 0.4 mm 4 mps 738 mmHg 94%
    08:00 -3°C° 0.4 mm 4 mps 738 mmHg 94%
    09:00 -4°C° 0.1 mm 5 mps 738 mmHg 93%
    10:00 -4°C° 0.1 mm 5 mps 738 mmHg 92%
    11:00 -2°C° 0.1 mm 5 mps 737 mmHg 91%
    12:00 -2°C° 0.2 mm 5 mps 737 mmHg 91%
    13:00 -2°C° 0.2 mm 5 mps 737 mmHg 90%
    14:00 -2°C° 0.2 mm 5 mps 737 mmHg 90%
    15:00 -4°C° 0.1 mm 5 mps 737 mmHg 90%
    16:00 -4°C° 0.1 mm 5 mps 737 mmHg 91%
    17:00 -3°C° 0.1 mm 4 mps 737 mmHg 91%
    18:00 -3°C° 0.1 mm 4 mps 737 mmHg 91%
    19:00 -3°C° 0.1 mm 4 mps 737 mmHg 91%
    20:00 -2°C° 0.1 mm 4 mps 737 mmHg 91%
    21:00 -2°C° 0.1 mm 4 mps 737 mmHg 91%
    22:00 -2°C° 0.1 mm 4 mps 738 mmHg 91%
    23:00 -2°C° 0.1 mm 5 mps 738 mmHg 91%

    20 January, Saturday

    Time Temperature Precipitation Wind Pressure Humidity
    00:00 -4°C° 0.1 mm 5 mps 739 mmHg 90%
    01:00 -4°C° 0.1 mm 5 mps 739 mmHg 88%
    02:00 -4°C° 0.1 mm 6 mps 740 mmHg 87%
    03:00 -5°C° 0.1 mm 6 mps 740 mmHg 87%
    04:00 -5°C° 0.1 mm 6 mps 740 mmHg 87%
    05:00 -6°C° 0.1 mm 6 mps 741 mmHg 87%
    06:00 -6°C° 0 mm 5 mps 741 mmHg 87%
    07:00 -6°C° 0 mm 5 mps 742 mmHg 87%
    08:00 -6°C° 0 mm 5 mps 742 mmHg 87%
    09:00 -5°C° 0 mm 5 mps 743 mmHg 86%
    10:00 -5°C° 0 mm 5 mps 744 mmHg 85%
    11:00 -5°C° 0 mm 5 mps 744 mmHg 85%
    12:00 -4°C° 0 mm 5 mps 744 mmHg 84%
    13:00 -4°C° 0 mm 5 mps 745 mmHg 84%
    14:00 -3°C° 0 mm 4 mps 745 mmHg 83%
    15:00 -4°C° 0 mm 4 mps 745 mmHg 85%
    16:00 -4°C° 0 mm 3 mps 746 mmHg 86%
    17:00 -4°C° 0 mm 3 mps 746 mmHg 87%
    18:00 -4°C° 0 mm 2 mps 746 mmHg 89%
    19:00 -4°C° 0 mm 2 mps 747 mmHg 90%
    20:00 -5°C° 0 mm 2 mps 747 mmHg 91%
    21:00 -3°C° 0 mm 1 mps 747 mmHg 91%
    22:00 -3°C° 0 mm 1 mps 747 mmHg 91%
    23:00 -4°C° 0 mm 1 mps 747 mmHg 91%

    21 January, Sunday

    Time Temperature Precipitation Wind Pressure Humidity
    00:00 -4°C° 0 mm 1 mps 747 mmHg 91%
    01:00 -6°C° 0 mm 1 mps 747 mmHg 91%
    02:00 -7°C° 0 mm 1 mps 748 mmHg 92%
    03:00 -7°C° 0 mm 1 mps 748 mmHg 92%
    04:00 -7°C° 0 mm 1 mps 748 mmHg 92%
    05:00 -8°C° 0 mm 1 mps 748 mmHg 92%
    06:00 -8°C° 0 mm 1 mps 748 mmHg 92%
    07:00 -8°C° 0 mm 1 mps 748 mmHg 92%
    08:00 -8°C° 0 mm 1 mps 748 mmHg 92%
    09:00 -7°C° 0 mm 1 mps 748 mmHg 91%
    10:00 -6°C° 0 mm 1 mps 748 mmHg 90%
    11:00 -4°C° 0 mm 1 mps 749 mmHg 88%
    12:00 -4°C° 0 mm 1 mps 749 mmHg 88%
    13:00 -5°C° 0 mm 2 mps 748 mmHg 88%
    14:00 -5°C° 0 mm 2 mps 748 mmHg 88%
    15:00 -6°C° 0 mm 2 mps 749 mmHg 90%
    16:00 -7°C° 0 mm 2 mps 749 mmHg 91%
    17:00 -7°C° 0 mm 2 mps 749 mmHg 93%
    18:00 -8°C° 0 mm 2 mps 749 mmHg 93%
    19:00 -8°C° 0 mm 2 mps 750 mmHg 93%
    20:00 -8°C° 0 mm 2 mps 750 mmHg 93%
    21:00 -8°C° 0 mm 2 mps 750 mmHg 93%
    22:00 -8°C° 0 mm 2 mps 751 mmHg 93%
    23:00 -7°C° 0 mm 2 mps 751 mmHg 93%

    22 January, Monday

    Time Temperature Precipitation Wind Pressure Humidity
    00:00 -7°C° 0 mm 2 mps 751 mmHg 92%
    01:00 -7°C° 0 mm 2 mps 752 mmHg 92%
    02:00 -6°C° 0 mm 2 mps 752 mmHg 91%
    03:00 -6°C° 0 mm 2 mps 752 mmHg 91%
    04:00 -6°C° 0 mm 2 mps 753 mmHg 92%
    05:00 -6°C° 0 mm 2 mps 753 mmHg 93%
    06:00 -6°C° 0 mm 2 mps 753 mmHg 93%
    07:00 -6°C° 0 mm 2 mps 754 mmHg 94%
    08:00 -6°C° 0 mm 2 mps 754 mmHg 94%
    09:00 -6°C° 0 mm 2 mps 755 mmHg 93%
    10:00 -5°C° 0 mm 2 mps 755 mmHg 92%
    11:00 -5°C° 0 mm 3 mps 755 mmHg 91%
    12:00 -5°C° 0 mm 3 mps 755 mmHg 90%
    13:00 -5°C° 0 mm 3 mps 755 mmHg 89%
    14:00 -4°C° 0 mm 3 mps 756 mmHg 88%
    15:00 -4°C° 0 mm 2 mps 756 mmHg 89%
    16:00 -4°C° 0 mm 2 mps 756 mmHg 91%
    17:00 -5°C° 0 mm 2 mps 757 mmHg 92%
    18:00 -5°C° 0 mm 2 mps 757 mmHg 92%
    19:00 -5°C° 0 mm 2 mps 758 mmHg 92%
    20:00 -5°C° 0 mm 2 mps 758 mmHg 91%
    21:00 -6°C° 0 mm 2 mps 758 mmHg 91%
    22:00 -6°C° 0 mm 2 mps 759 mmHg 91%
    23:00 -7°C° 0 mm 2 mps 759 mmHg 91%
    Show more